DELTA 1 DEB, 21499

Orbit data source: Space-Track

DELTA 1 DEB, 21499 is space debris in SSO originally from a launch on Thu, 12 Jun 1975 UTC launched from the Air Force Western Test Range (AFWTR). Debris objects in space refer to the collection of defunct objects orbiting the Earth. Examples of debris include non-operational satellites, rocket bodies, and fragments generated from explosions, collisions, or faulty payload assembly.

Loading next visibility...
Identifier
21499, 1975-052FU
Orbit
SSO
Country
Flag of USUS
Related business
Manufacturer
Unknown
Mission
Spacecraft
Bus & Motor
Unknown
Mass
Unknown
Launch date (UTC)
1975-06-12 (51 years ago)
Launch vehicle
Unknown
Launch site
Air Force Western Test Range (AFWTR)
Object type
Payload
Rocket body
Debris
Shape & HBR
Unknown shape, 0.1 m
Radar Cross Section
Small (<0.1 m²)

Expand to show TLE details & history
Last TLE update: 1 day ago

TLE from 1 day ago
0 DELTA 1 DEB
1 21499U 75052FU  26126.35491729  .00001233  00000-0  22075-2 0  9998
2 21499  99.6166 259.9708 0128842   7.5961  49.6238 13.40682606688861
Epoch: 2026-05-06T08:31Z
TLE epoch observation values (Epoch: 2026-05-06T08:31:04.853Z)
Latitude
57.17008°
Longitude
-107.16062°
Altitude
1,054.484 km
Speed
7.36 km/s
True Right ascension
16h 19m 18s
True Declination
57° 01' 10"
Sunlit
Object was in daylight at epoch
Visualization orbit readout
Latitude
Unknown
Longitude
Unknown
Altitude
Unknown
Speed
Unknown
Apparent Right ascension
Unknown
Apparent Declination
Unknown
Sunlit
N/A
Visualization observer readout
Local Sidereal Time
18:15:43
Azimuth
Unknown
Elevation
Unknown
Doppler factor
Unknown
Orbital elements
Apogee altitude
1,200.448 km
Perigee altitude
1,007.645 km
Semi-major axis
7,482.183 km
Eccentricity
0.01288
Inclination
99.6166°
RAAN
259.9708°
Arg. of periapsis
7.5961°
True anomaly
50.76033°
Mean anomaly
49.6238°
Eccentric anomaly
50.19088°
Mean motion
3.35352 °/min
Orbital period
107.35 mins
BSTAR
0.0022075
Loading maneuver chart data...
Computing Atmospheric mass density...
Loading historical data...
Loading historical data...
Loading historical data...
Loading historical data...
Loading historical data...
Loading historical data...
Loading historical data...

Documentation

Showing up to 5 results
|